Location: Liscomb Game Sanctuary
(45.1633°N, 62.5575°W)
Time: 12:50:20

CZ-4C R/B - Pass Details

Date: 22 February 2018
Orbit: 695 x 1307 km, 63.4° (Epoch: 19 March)

Event Time Altitude Azimuth Distance (km) Brightness Sun altitude
Rises 21:01:27 0° 320° (NW) 3,841 6.4 -34.3°
Reaches altitude 10° 21:03:58 10° 318° (NW) 2,965 5.7 -34.7°
Enters shadow 21:10:42 66° 255° (WSW) 1,306 3.1 -35.8°
